Location: Sternwarte ZA, Rosenfeld-Brittheim
(48.2889°N, 8.6789°E)
Time: 14:12:37
(UTC+02:00)

ISS - Pass Details

Date: 21 May 2018
Orbit: 402 x 407 km, 51.6° (Epoch: 25 May)

Event Time Altitude Azimuth Distance (km) Brightness Sun altitude
Rises 22:14:33 0° 215° (SW) 2,309 -0.1 -9.7°
Reaches altitude 10° 22:16:48 10° 203° (SSW) 1,452 -1.2 -9.9°
Maximum altitude 22:19:37 27° 143° (SE) 804 -2.9 -10.2°
Drops below altitude 10° 22:22:27 10° 83° (E) 1,458 -1.3 -10.6°
Sets 22:24:42 0° 71° (ENE) 2,320 -0.2 -10.8°
